Location: Hilton Head Island
(32.2163°N, 80.7526°W)
Time: 21:43:21
(UTC-05:00)

Transit 2A Rocket - Pass Details

Date: 11 February 2026
Orbit: 583 x 900 km, 66.7° (Epoch: 5 March)

Event Time Altitude Azimuth Distance (km) Brightness Sun altitude
Rises 04:25:10 0° 319° (NW) 3,281 - -35.2°
Reaches altitude 10° 04:28:08 10° 305° (NW) 2,288 - -34.5°
Maximum altitude 04:32:05 22° 255° (WSW) 1,529 - -33.7°
Drops below altitude 10° 04:35:47 10° 204° (SSW) 2,116 - -32.9°
Sets 04:38:25 0° 189° (S) 2,971 - -32.4°
